RH
69 75 79 77 74 72 72 67 65 60 58 70 66 66 71 86 98 96 87 99 85 81 61 51 50 55 61 68 72 69 70 70 68
36 45 62 70 76 70 69 67 68 65 60 66 63 60 62 96 98 98 96 89 70 83 85 78 67 71 78 78 75 76 76 75 73
19 24 40 51 65 68 67 63 68 71 65 67 65 64 61 87 96 97 99 72 81 70 71 75 79 78 77 75 73 74 77 76 74
14 15 25 35 47 62 60 64 61 70 70 68 69 69 70 96 94 93 96 76 76 61 68 80 84 74 76 80 80 80 81 82 83
13 14 18 30 47 45 60 65 56 70 74 74 78 79 76 99 100 99 88 84 82 66 64 60 66 76 84 88 83 78 78 78 80
16 16 17 23 44 69 72 70 58 74 82 80 86 87 100 99 98 99 90 77 73 73 76 71 68 67 82 83 70 72 76 76 78
27 28 28 30 52 66 68 71 78 91 91 90 96 97 93 96 98 83 77 82 76 73 76 72 76 76 77 75 75 78 77 78 76
36 51 82 88 88 82 93 86 83 84 85 91 97 92 93 93 91 72 71 78 76 71 80 80 80 75 76 80 78 77 79 79 77
38 86 93 99 93 94 92 89 85 86 92 89 88 86 81 79 79 78 71 76 80 79 82 82 83 90 85 73 76 76 77 78 73
32 37 52 94 75 90 90 90 94 97 93 89 88 82 82 81 73 78 75 70 81 84 81 84 86 90 82 72 76 78 76 73 70
36 39 47 66 88 99 98 97 97 92 94 89 89 88 85 81 75 76 77 76 73 88 89 88 95 91 83 79 78 78 77 76 74
41 42 42 55 79 93 90 98 99 96 96 93 90 88 84 82 76 78 79 78 78 75 89 92 97 93 89 87 82 80 80 78 74
44 46 50 54 62 85 95 98 98 97 95 92 86 86 85 82 79 79 74 77 78 78 77 96 95 94 93 92 91 88 77 69 62
48 51 52 54 62 69 94 94 96 96 95 92 90 87 80 81 81 77 79 82 83 76 80 86 93 95 95 92 91 84 80 69 64
47 51 54 59 64 78 82 95 94 93 90 95 93 88 86 85 85 82 85 84 86 78 71 98 88 90 92 95 92 87 81 77 74
49 53 54 57 65 81 97 100 99 99 97 98 93 92 91 93 94 94 94 90 91 89 79 82 99 86 91 90 92 92 91 84 78
51 54 56 58 65 79 95 96 97 98 99 96 97 92 94 96 98 99 98 94 87 85 74 80 82 96 92 86 88 95 95 91 84
54 56 60 62 64 72 79 100 98 99 98 98 93 95 79 90 84 97 92 84 80 77 75 78 77 78 85 87 86 90 94 93 85
59 58 61 64 66 67 73 83 98 99 100 99 98 74 67 77 81 80 85 81 73 64 63 73 73 75 92 97 92 93 94 96 98
67 64 64 65 65 65 67 71 85 99 100 97 92 97 58 43 59 64 62 58 49 45 44 45 55 70 82 99 96 93 94 95 97
Wind_Speed
9 9 7 5 4 3 3 3 5 5 7 8 8 8 9 10 9 9 11 9 11 11 11 13 13 13 14 14 12 11 10 10 10
10 9 10 8 5 5 5 5 5 5 6 7 7 6 7 7 7 8 8 8 10 10 10 10 11 11 10 10 9 9 8 6 8
12 10 12 11 8 6 6 7 7 6 7 7 6 5 6 6 7 6 7 9 8 9 9 9 9 8 7 7 7 7 6 6 5
12 12 12 12 11 8 7 8 8 9 7 7 6 5 5 6 6 7 4 7 7 8 8 8 8 8 7 7 6 6 5 4 4
12 12 14 13 11 9 10 8 8 11 10 9 7 6 6 6 6 6 6 5 5 6 7 7 7 7 7 7 5 4 3 3 3
10 13 12 13 12 11 10 9 7 8 9 9 9 7 6 6 6 4 6 5 6 6 6 6 7 7 6 6 5 4 3 2 3
8 9 11 14 15 12 12 9 8 9 10 11 11 8 7 5 5 4 4 3 6 7 6 6 6 6 7 6 5 4 3 3 2
10 10 13 13 13 14 12 10 10 10 12 10 11 10 8 5 4 2 2 3 5 8 7 7 7 7 7 6 5 5 4 3 2
12 11 11 15 19 14 12 11 10 12 12 13 12 12 10 10 5 3 3 3 5 8 8 7 8 8 5 5 7 6 4 3 2
13 15 15 15 18 16 14 12 11 10 14 14 14 14 13 11 9 5 4 3 2 6 8 8 9 9 7 6 7 6 5 4 3
12 13 16 17 13 16 16 15 12 13 15 16 16 15 15 13 12 10 8 5 5 3 6 9 8 7 5 7 6 5 5 5 5
11 11 13 16 17 20 16 16 15 14 16 17 18 17 17 16 15 14 11 10 7 7 6 9 9 6 4 4 6 6 7 6 7
11 11 12 14 16 16 15 15 16 16 18 19 19 18 17 18 17 16 14 13 12 8 11 6 9 8 7 6 5 4 3 1 1
12 12 13 13 15 16 15 16 17 20 20 20 20 20 19 21 20 19 19 18 17 15 11 10 9 10 9 7 6 4 3 1 2
14 14 14 14 16 17 18 16 16 21 22 19 21 21 22 22 21 22 20 20 20 16 17 12 15 11 10 9 6 4 4 3 3
16 16 16 16 17 17 19 20 20 20 22 19 21 21 23 24 26 24 22 22 20 20 19 24 14 18 15 11 8 7 6 6 6
17 17 17 17 18 19 21 23 24 23 21 23 17 13 21 26 24 23 24 23 21 20 19 22 23 20 18 17 15 10 8 10 9
17 18 19 19 19 21 22 24 25 24 25 24 12 7 10 11 23 25 23 22 21 21 21 23 22 25 24 21 20 18 14 13 11
18 18 19 20 21 22 24 25 26 24 27 27 27 16 8 6 5 21 23 22 21 21 20 20 21 22 24 26 24 24 22 19 14
19 19 20 21 22 23 24 25 27 29 24 26 28 31 19 14 7 6 20 24 23 21 21 21 22 23 24 23 24 23 24 24 20
Wind_Direction
200 193 200 202 191 174 160 153 142 147 138 133 124 115 114 99 101 104 114 131 130 135 131 127 126 124 123 122 122 121 114 101 92
225 212 217 227 220 199 195 176 180 164 155 148 137 124 120 108 105 107 111 126 140 139 142 140 135 130 130 129 129 133 134 121 111
239 226 221 228 230 219 212 198 190 184 173 163 153 132 120 111 112 114 126 132 141 151 153 153 153 150 149 144 140 146 139 136 125
245 236 227 222 222 213 214 216 198 191 187 178 166 145 124 112 119 114 106 145 147 153 152 155 156 159 156 158 160 154 152 144 126
242 231 222 214 207 206 213 222 207 190 190 184 177 157 131 116 101 111 136 122 149 154 160 164 165 159 158 165 170 173 168 153 139
234 226 214 205 188 199 208 217 209 185 190 188 180 166 137 122 113 111 136 157 169 164 170 177 176 177 169 172 184 173 175 161 138
210 206 197 186 179 201 214 210 190 178 180 186 181 169 164 142 123 158 160 167 171 180 186 184 179 181 187 198 187 177 171 158 140
206 195 180 174 184 194 196 186 192 199 197 197 184 188 184 174 167 176 197 174 182 189 183 177 177 190 197 199 190 185 178 177 162
208 196 193 190 187 197 201 195 217 212 198 199 201 204 205 209 200 218 223 199 184 197 194 194 186 181 199 192 202 200 201 196 191
214 208 206 201 202 204 212 209 211 199 198 200 202 209 210 206 218 216 238 231 232 199 196 190 196 200 237 193 191 193 196 208 230
220 214 211 210 207 204 208 210 209 203 202 205 207 204 208 211 217 219 244 249 240 215 193 182 184 205 237 202 198 204 218 236 253
217 216 213 212 208 210 219 208 203 206 207 210 212 216 218 215 222 224 236 241 235 234 222 201 185 202 213 221 219 226 234 244 255
219 218 216 216 214 212 209 208 212 209 213 215 217 217 218 222 225 216 225 238 245 252 234 202 202 188 182 173 152 156 136 118 63
227 223 220 217 216 212 206 207 211 211 215 217 219 222 225 226 226 231 233 234 242 252 232 212 202 202 187 187 201 211 193 210 316
234 231 230 224 220 215 211 208 207 214 219 218 222 225 226 229 231 232 233 237 242 236 232 214 209 204 204 189 204 229 215 235 251
232 231 233 231 226 223 215 212 212 211 213 221 226 230 233 234 236 236 231 232 238 243 233 217 200 213 214 215 208 222 221 225 243
236 235 234 233 230 223 221 217 216 218 214 217 222 237 242 238 234 232 230 234 236 232 227 218 222 215 213 218 234 241 235 237 241
245 242 240 236 232 231 230 223 223 224 221 220 203 212 228 215 235 231 227 228 230 230 229 223 224 224 224 225 234 232 228 238 222
254 250 245 241 237 234 232 232 229 226 229 228 213 215 205 204 224 226 226 226 226 224 222 219 218 217 218 224 230 228 233 231 239
256 255 252 248 244 240 238 235 232 229 229 239 229 228 233 228 207 217 222 224 224 223 222 220 219 218 216 212 217 222 228 240 252